Powrót do katalogu

COSMOS 1618

AktywnyNawigacjaPO
NORAD 15470·PAYLOAD·🇷🇺 Russia

Wystrzelony Jan 15, 1985 z Plesetsk Cosmodrome

Loading…

Następne Przeloty (najbliższe 24 godziny)

TLE

ŚwieżeSource: Space-Track

Epoka: Sep 14, 2026, 08:24 UTC

1 15470U 85003B   26257.35040203  .00000000  00000-0 -57067-4 0  9992
2 15470  82.6048  36.3249 0005316  39.1915 348.8126 12.62994998920638

Śledź COSMOS 1618 w czasie rzeczywistym z AllMySat

Download on the App Store